Simultaneous Nadir Overpasses (SNOs) Predictions

Prediction of SNOs between GOES-14 and AQUA Satellite Orbit:

Table of predicted SNOs for the next 14.0 days since TLE Epoch: 5/2/2020
Index Date Time (GOES-14) GOES-14 Lat,Lon AQUA Lat,Lon Distance(km) Time Diff (sec)
1 05/02/2020 08:29:48 0.12,-104.13 -0.06,-103.19 105.94 80
2 05/02/2020 20:51:12 -0.10,-104.19 -1.02,-108.39 477.68 80
3 05/04/2020 08:17:36 0.12,-104.13 -0.70,-100.23 443.30 80
4 05/04/2020 20:39:01 -0.10,-104.20 -0.38,-105.43 140.66 80
5 05/06/2020 20:24:09 -0.11,-104.20 0.27,-102.48 196.29 80
6 05/07/2020 08:45:23 0.09,-104.13 0.82,-107.63 398.07 80
7 05/09/2020 08:33:10 0.09,-104.13 0.23,-104.66 60.90 80
8 05/11/2020 08:23:39 0.09,-104.14 -0.42,-101.71 276.32 80
9 05/11/2020 20:45:03 -0.07,-104.23 -0.64,-106.91 305.08 80
10 05/13/2020 20:30:10 -0.08,-104.23 -0.05,-103.94 32.37 80
11 05/15/2020 20:17:58 -0.09,-104.24 0.62,-100.99 369.97 80




NCC Satellite Simultaneous Nadir Overpasses (SNOs) Prediction Service
